Regional Weather Roundup
Issued by NWS

Home | Current Version | Previous Version | Graphics & Text | Print | Product List | Glossary Off
Versions: 1 2 3 4 5 6 7 8 9 10 11 12 13 14 15 16 17 18 19 20 21 22 23 24 25 26 27 28 29 30 31 32 33 34 35 36 37 38 39 40 41 42 43 44 45 46 47 48 49 50

000
ASUS43 KTOP 250708
RWRKS

WEATHER ROUNDUP FOR KANSAS
NATIONAL WEATHER SERVICE GOODLAND KS
100 AM CST SUN JAN 25 2015

NOTE:  "FAIR" INDICATES FEW OR NO CLOUDS BELOW 12,000 FEET WITH NO
SIGNIFICANT WEATHER AND/OR OBSTRUCTIONS TO VISIBILITY.

KSZ001>006-013>018-027>032-041>047-250800-
NORTHWEST KANSAS

CITY           SKY/WX    TMP DP  RH WIND       PRES   REMARKS
GOODLAND       CLOUDY    41  29  62 NW26G35   30.03S
HAYS           CLOUDY    46  30  53 NW21G33   29.89S
HILL CITY      PTCLDY    46  32  58 NW23G33   29.92R
RUSSELL        CLOUDY    47  35  63 NW20      29.86R
$$

KSZ061>065-074>080-084>089-250800-
SOUTHWEST KANSAS

CITY           SKY/WX    TMP DP  RH WIND       PRES   REMARKS
DODGE CITY     CLOUDY    48  30  49 NW23G30   29.97R
ELKHART          N/A    N/A N/A N/A MISG        N/A
GARDEN CITY    CLOUDY    44  28  53 NW24G31   29.98F
GREAT BEND     CLOUDY    48  32  53 NW21G29   29.88F
LIBERAL        PTCLDY    45  30  57 NW14      30.05F
PRATT          CLOUDY    50  32  50 NW20G28   29.88F
$$

KSZ066>073-081>083-090>101-250800-
SOUTHEAST KANSAS

CITY           SKY/WX    TMP DP  RH WIND       PRES   REMARKS
CHANUTE        CLOUDY    50  34  54 W9        29.73F
COFFEYVILLE    CLOUDY    51  32  48 SW8       29.75F
HUTCHINSON     MOCLDY    50  36  58 W16       29.84S
MEDICINE LODGE   N/A     53  35  50 NW15G22   29.87F
NEWTON         MOCLDY    48  34  57 NW21G32   29.82R
PARSONS        CLOUDY    50  34  54 SW8       29.75F
WICHITA INTL   CLOUDY    53  36  52 NW15G25   29.82S
WICHITA JABRA  CLOUDY    51  36  56 NW17G24   29.81S
WICHITA MCCONL CLOUDY    52  37  54 NW15      29.81S
WINFIELD       CLOUDY    51  31  46 W17       29.82S
$$

KSZ007>012-019>026-033>040-048>060-102>105-250800-
NORTHEAST KANSAS

CITY           SKY/WX    TMP DP  RH WIND       PRES   REMARKS
CONCORDIA      PTCLDY    47  35  63 W17G26    29.76S
EMPORIA        PTCLDY    46  39  76 W15G23    29.72F
LAWRENCE       LGT RAIN  46  41  82 W8        29.68F
MANHATTAN      CLOUDY    51  36  56 NW9       29.74R
MARYSVILLE     MOCLDY    45  37  76 NW12      29.69F
OLATHE IND     LGT RAIN  47  42  83 W13       29.68F
OLATHE EXE     LGT RAIN  47  43  86 W10       29.66F
SALINA         CLOUDY    48  37  65 NW17      29.80S
TOPEKA BILLARD CLOUDY    48  39  71 W10       29.69F
TOPEKA FORBES  CLOUDY    50  39  66 W17G23    29.68F
$$



USA.gov is the U.S. government's official web portal to all federal, state and local government web resources and services.